TimeEDT,TemperatureF,Dew PointF,Humidity,Sea Level PressureIn,VisibilityMPH,Wind Direction,Wind SpeedMPH,Gust SpeedMPH,PrecipitationIn,Events,Conditions,WindDirDegrees,DateUTC
12:53 AM,72.0,71.1,97,29.95,10.0,Calm,Calm,-,0.00,,Clear,0,2012-10-07 04:53:00
1:53 AM,72.0,71.1,97,29.94,9.0,Calm,Calm,-,N/A,,Clear,0,2012-10-07 05:53:00
2:53 AM,71.1,70.0,96,29.93,10.0,West,3.5,-,0.01,,Clear,280,2012-10-07 06:53:00
3:53 AM,72.0,71.1,97,29.92,10.0,NW,4.6,-,N/A,,Clear,310,2012-10-07 07:53:00
4:53 AM,72.0,70.0,93,29.91,10.0,NW,3.5,-,N/A,,Clear,320,2012-10-07 08:53:00
5:53 AM,71.1,70.0,96,29.93,10.0,Calm,Calm,-,N/A,,Clear,0,2012-10-07 09:53:00
6:53 AM,71.1,69.1,93,29.94,10.0,Calm,Calm,-,N/A,,Clear,0,2012-10-07 10:53:00
7:53 AM,72.0,70.0,93,29.95,10.0,Calm,Calm,-,N/A,,Mostly Cloudy,0,2012-10-07 11:53:00
8:53 AM,78.1,73.9,87,29.96,10.0,Calm,Calm,-,N/A,,Clear,0,2012-10-07 12:53:00
9:53 AM,82.0,75.0,79,29.97,10.0,North,6.9,-,N/A,,Partly Cloudy,10,2012-10-07 13:53:00
10:53 AM,82.9,75.0,77,29.99,10.0,ENE,6.9,-,N/A,,Mostly Cloudy,60,2012-10-07 14:53:00
11:00 AM,84.2,75.2,74,29.99,10.0,ENE,8.1,-,N/A,,Partly Cloudy,60,2012-10-07 15:00:00
11:07 AM,82.4,75.2,79,29.99,10.0,ENE,5.8,-,N/A,,Mostly Cloudy,60,2012-10-07 15:07:00
11:21 AM,82.4,75.2,79,29.99,10.0,ENE,9.2,-,N/A,,Scattered Clouds,60,2012-10-07 15:21:00
11:53 AM,82.0,73.9,76,29.98,10.0,ENE,5.8,-,N/A,,Mostly Cloudy,60,2012-10-07 15:53:00
12:07 PM,82.4,75.2,79,29.98,10.0,ENE,5.8,-,N/A,,Scattered Clouds,60,2012-10-07 16:07:00
12:53 PM,79.0,75.9,90,29.98,7.0,NE,8.1,-,0.34,Rain,Heavy Rain,50,2012-10-07 16:53:00
1:53 PM,77.0,73.9,90,29.96,10.0,NE,5.8,-,0.02,,Scattered Clouds,50,2012-10-07 17:53:00
2:53 PM,80.1,73.0,79,29.94,10.0,East,5.8,-,N/A,,Mostly Cloudy,90,2012-10-07 18:53:00
3:53 PM,79.0,75.0,88,29.94,10.0,Calm,Calm,-,N/A,,Mostly Cloudy,0,2012-10-07 19:53:00
4:53 PM,78.1,75.0,90,29.94,6.0,WSW,3.5,-,0.01,Rain,Light Rain,240,2012-10-07 20:53:00
5:53 PM,77.0,75.0,94,29.95,8.0,Calm,Calm,-,0.04,Rain,Light Rain,0,2012-10-07 21:53:00
6:53 PM,77.0,75.9,96,29.95,10.0,Calm,Calm,-,0.00,,Scattered Clouds,0,2012-10-07 22:53:00
7:53 PM,77.0,75.0,94,29.97,10.0,Calm,Calm,-,N/A,,Partly Cloudy,0,2012-10-07 23:53:00
8:53 PM,75.9,75.0,97,29.98,10.0,Calm,Calm,-,N/A,,Clear,0,2012-10-08 00:53:00
9:53 PM,75.9,75.0,97,29.99,10.0,Calm,Calm,-,0.00,,Partly Cloudy,0,2012-10-08 01:53:00
10:53 PM,75.9,73.9,94,29.99,10.0,Calm,Calm,-,N/A,,Clear,0,2012-10-08 02:53:00
11:53 PM,75.9,73.9,94,29.98,10.0,Calm,Calm,-,N/A,,Clear,0,2012-10-08 03:53:00